Location: Boston
(42.3580°N, 71.0600°W)
Time: 17:10:36
(UTC-04:00)

Vanguard 3 - Visible Passes

Search period start: 15 July 2018 00:00
Search period end: 25 July 2018 00:00
Orbit: 508 x 3264 km, 33.3° (Epoch: 14 July)

Date Brightness Start Highest point End Pass type
(mag) Time Alt. Az. Time Alt. Az. Time Alt. Az.
15 Jul 8.4 20:59:26 10° WSW 21:07:52 38° S 21:13:00 10° ESE visible
15 Jul 8.4 23:13:59 10° WSW 23:17:39 23° SW 23:17:39 23° SW visible
16 Jul 8.0 21:58:24 10° WSW 22:05:42 37° S 22:07:58 26° SE visible
17 Jul 8.5 20:42:23 10° WSW 20:52:00 42° S 20:57:40 10° ESE visible
17 Jul 8.3 22:57:34 10° WSW 23:02:49 26° SSW 23:02:49 26° SSW visible
18 Jul 8.3 21:41:38 10° WSW 21:49:52 39° SSW 21:53:04 22° SE visible
18 Jul 9.5 23:57:30 10° WSW 23:57:39 10° WSW 23:57:39 10° WSW visible
19 Jul 8.4 22:41:04 10° W 22:47:21 27° SSW 22:47:53 26° SSW visible
20 Jul 8.5 21:24:44 10° W 21:33:57 40° SSW 21:38:07 18° SE visible
20 Jul 9.4 23:41:26 10° WSW 23:42:41 12° WSW 23:42:41 12° WSW visible
21 Jul 8.5 22:24:26 10° W 22:31:23 27° SSW 22:32:54 24° S visible
22 Jul 8.8 21:07:45 10° W 21:17:55 41° SSW 21:23:07 14° SE visible
22 Jul 9.5 23:25:18 10° WSW 23:27:41 13° SW 23:27:41 13° SW visible
23 Jul 8.8 22:07:43 10° W 22:15:21 26° SSW 22:17:54 21° S visible
24 Jul 9.0 20:50:41 10° W 21:01:48 41° SSW 21:08:06 11° SE visible
24 Jul 9.6 23:09:07 10° WSW 23:12:12 13° SW 23:12:40 13° SW visible
